User: anonymous   Login
Location: Unspecified
(0.0000°N, 0.0000°E)
Time: 19:22:22
(UTC+00:00)
Language:

FALCON 9 R/B - Orbit

View from above orbital plane
View from above orbital plane
View from above satellite
View from above satellite

Ground track
Ground track

The orbit data is extracted from the following two-line orbital elements,

1 37253U 10066K   18111.12227693  .00006824  00000-0  57093-3 0  9994
2 37253  34.5075 250.7558 4273248 150.6374 242.3243  6.92017482181878
Epoch (UTC): 21 April 2018 02:56:04
Eccentricity: 0.4273248
inclination: 34.5075°
perigee height: 283 km
apogee height: 10224 km
right ascension of ascending node: 250.7558°
argument of perigee: 150.6374°
revolutions per day: 6.92017482
mean anomaly at epoch: 242.3243°
orbit number at epoch: 18187

The dashed part of the orbit path shows where the satellite is in the earth's shadow,  

DLR